(214551) = 2001 QG209 = 2006 PF15

Discovered at Palomar on 2006-08-15 by NEAT.

Orbit

Orbit type: Main Belt

Note: WebGL enabled browser required.

epoch2024-03-31.0
epoch JD2460400.5
perihelion date2021-12-12.69573
perihelion JD2459561.19573
argument of perihelion (°)172.85448
ascending node (°)184.34142
inclination (°)2.62357
eccentricity0.0945274
perihelion distance (AU)2.6457572
Tisserand w.r.t. Jupiter3.3
ΔV w.r.t. Earth (km/sec)10.2
semimajor axis (AU)2.9219628
mean anomaly (°)165.61942
mean daily motion (°/day)0.19732940
aphelion distance (AU)3.198
period (years)4.99
P-vector [x]0.99879277
P-vector [y]-0.04702989
P-vector [z]-0.01418404
Q-vector [x]0.04899990
Q-vector [y]0.93349846
Q-vector [z]0.35521773
absolute magnitude15.9
phase slope0.15
uncertainty0
referenceMPEC 2024-E73
observations used502
oppositions19
arc length (days)8230
first opposition used2001
last opposition used2024
residual rms (arc-secs)0.71
perturbers coarse indicatorM-v
perturbers precise indicator003Ek
first observation date used2001-08-23.0
last observation date used2024-03-05.0
computer nameMPCLINUX
JD of orbit computation2456760.819369
perihelion JD uncertainty (days)1.3866E-04
argument of perihelion uncertainty (°)9.8271E-05
ascending node uncertainty (°)9.4955E-05
inclination uncertainty (°)5.2183E-06
eccentricity uncertainty 4.8411E-08
perihelion distance uncertainty (AU)1.3724E-07
Minimum Orbit Intersection Distances (in AU)
for orbit epoch: 2460400.5, reference: E2024-E73
Mercury2.27207
Venus1.92106
Earth1.64145
Mars1.24738
Jupiter2.21215
Saturn6.05317
Uranus15.2476
Neptune27.0771

Observations

509 total observations over interval: 2001 08 23.28594 – 2024 03 05.283253
These data are available for download (format description).

Date (UT) J2000 RA J2000 Dec Magn Location Ref
2001 08 23.28594 22 07 35.58 -09 01 33.5 19.1 R 699 – Lowell Observatory-LONEOS MPS 34839
2001 08 23.30932 22 07 34.44 -09 01 40.4   699 – Lowell Observatory-LONEOS MPS 34839
2001 08 23.33276 22 07 33.33 -09 01 48.5   699 – Lowell Observatory-LONEOS MPS 34839
2001 08 23.35621 22 07 32.15 -09 01 55.5   699 – Lowell Observatory-LONEOS MPS 34839
2001 08 24.24305 22 06 51.26 -09 06 32.1 19.0   644 – Palomar Mountain/NEAT MPS 34839
2001 08 24.25435 22 06 50.72 -09 06 35.6 19.0   644 – Palomar Mountain/NEAT MPS 34839
2001 08 24.26570 22 06 50.17 -09 06 39.2 18.9   644 – Palomar Mountain/NEAT MPS 34839
2001 09 20.17875 21 49 12.54 -11 13 50.7 19.4   704 – Lincoln Laboratory ETS, New Mexico MPS 178639
2001 09 20.19290 21 49 12.20 -11 13 53.9 19.9   704 – Lincoln Laboratory ETS, New Mexico MPS 178639
2001 09 20.23553 21 49 10.97 -11 14 03.0 20.0   704 – Lincoln Laboratory ETS, New Mexico MPS 178639
2002 12 13.28471 05 09 48.23 +19 05 55.9 19.4   644 – Palomar Mountain/NEAT MPS 284395
2002 12 13.35105 05 09 44.45 +19 05 51.1 19.5   644 – Palomar Mountain/NEAT MPS 284395
2002 12 13.41336 05 09 40.89 +19 05 46.0 19.8   644 – Palomar Mountain/NEAT MPS 284395
2004 02 16.47925 10 52 26.00 +05 20 13.4 21.2 V 691 – Steward Observatory, Kitt Peak-Spacewatch MPS 278682
2004 02 16.51481 10 52 24.44 +05 20 23.7 21.1 V 691 – Steward Observatory, Kitt Peak-Spacewatch MPS 278682
2004 02 16.54183 10 52 23.28 +05 20 31.7 21.5 V 691 – Steward Observatory, Kitt Peak-Spacewatch MPS 278682
2005 04 07.46590 15 53 05.41 -17 46 43.0 19.7 R G96 – Mt. Lemmon Survey MPS 284395
2005 04 07.47049 15 53 05.34 -17 46 42.1 20.5 R G96 – Mt. Lemmon Survey MPS 284395
2005 04 07.47508 15 53 05.19 -17 46 41.7 20.9 R G96 – Mt. Lemmon Survey MPS 284395
2005 04 07.47970 15 53 05.12 -17 46 41.1 20.6 R G96 – Mt. Lemmon Survey MPS 284395
2005 05 08.33530 15 34 32.44 -16 15 55.7 19.0 R G96 – Mt. Lemmon Survey MPS 284395
2005 05 08.34208 15 34 32.11 -16 15 53.5 18.9 R G96 – Mt. Lemmon Survey MPS 284395
2005 05 08.34878 15 34 31.78 -16 15 52.7 19.2 R G96 – Mt. Lemmon Survey MPS 284395
2005 05 08.35554 15 34 31.43 -16 15 51.2 20.7 R G96 – Mt. Lemmon Survey MPS 284395
2005 06 10.18179 15 09 34.72 -14 32 48.1 20.9 V 691 – Steward Observatory, Kitt Peak-Spacewatch MPS 284395
2005 06 10.19919 15 09 34.09 -14 32 46.4 21.1 V 691 – Steward Observatory, Kitt Peak-Spacewatch MPS 284395
2005 06 10.21661 15 09 33.48 -14 32 43.8 20.6 V 691 – Steward Observatory, Kitt Peak-Spacewatch MPS 284395
2006 08 15.35030 22 08 55.08 -08 44 31.7 19.3 R 644 – Palomar Mountain/NEAT MPS 176106
2006 08 15.37119 22 08 54.11 -08 44 37.5 19.2 R 644 – Palomar Mountain/NEAT MPS 176106
2006 08 15.39336 22 08 53.09 -08 44 44.1 19.1 R 644 – Palomar Mountain/NEAT MPS 176106
2006 08 18.33374 22 06 39.65 -08 59 13.7 19.3 R 644 – Palomar Mountain/NEAT MPS 177113
2006 08 18.35431 22 06 38.67 -08 59 19.8 19.2 R 644 – Palomar Mountain/NEAT MPS 177113
2006 08 18.37612 22 06 37.62 -08 59 26.5 19.2 R 644 – Palomar Mountain/NEAT MPS 177113
2006 08 19.22551 22 05 58.77 -09 03 42.0 19.8 V 691 – Steward Observatory, Kitt Peak-Spacewatch MPS 176106
2006 08 19.24282 22 05 58.00 -09 03 48.6 19.3 V 691 – Steward Observatory, Kitt Peak-Spacewatch MPS 176106
2006 08 19.26012 22 05 57.12 -09 03 52.6 19.7 V 691 – Steward Observatory, Kitt Peak-Spacewatch MPS 176106
2006 08 28.23683 21 59 01.21 -09 50 02.5 19.6 V 703 – Catalina Sky Survey MPS 177113
2006 08 28.24567 21 59 00.85 -09 50 05.1 19.4 V 703 – Catalina Sky Survey MPS 177113
2006 08 28.25451 21 59 00.38 -09 50 07.3 19.9 V 703 – Catalina Sky Survey MPS 177113
2006 08 28.26334 21 58 59.98 -09 50 10.6 19.4 V 703 – Catalina Sky Survey MPS 177113
2006 09 14.21741 21 47 34.22 -11 11 17.0 19.1 V 703 – Catalina Sky Survey MPS 178639
2006 09 14.22387 21 47 34.00 -11 11 17.7 19.6 V 703 – Catalina Sky Survey MPS 178639
2006 09 14.23029 21 47 33.75 -11 11 18.6 20.3 V 703 – Catalina Sky Survey MPS 178639
2006 09 14.23671 21 47 33.46 -11 11 20.5 20.1 V 703 – Catalina Sky Survey MPS 178639
2007 11 20.43274 05 28 13.47 +19 35 25.7 20.0 V 691 – Steward Observatory, Kitt Peak-Spacewatch MPS 284395
2007 11 20.45037 05 28 12.68 +19 35 23.9 20.0 V 691 – Steward Observatory, Kitt Peak-Spacewatch MPS 284395
2007 11 20.46802 05 28 11.87 +19 35 22.4 19.9 V 691 – Steward Observatory, Kitt Peak-Spacewatch MPS 284395
2007 12 04.31346 05 16 36.45 +19 15 04.0   704 – Lincoln Laboratory ETS, New Mexico MPS 406949
2007 12 04.32621 05 16 35.79 +19 15 03.9   704 – Lincoln Laboratory ETS, New Mexico MPS 406949
2007 12 04.33896 05 16 35.09 +19 15 02.4   704 – Lincoln Laboratory ETS, New Mexico MPS 406949
2007 12 04.35221 05 16 34.41 +19 15 00.2   704 – Lincoln Laboratory ETS, New Mexico MPS 406949
2007 12 05.36657 05 15 38.48 +19 13 34.5 19.3 V G96 – Mt. Lemmon Survey MPS 284395
2007 12 05.37262 05 15 38.16 +19 13 33.9 19.4 V G96 – Mt. Lemmon Survey MPS 284395
2007 12 05.37862 05 15 37.83 +19 13 33.1 19.3 V G96 – Mt. Lemmon Survey MPS 284395
2007 12 05.38461 05 15 37.47 +19 13 32.7 19.3 V G96 – Mt. Lemmon Survey MPS 284395
2008 02 11.11931 04 45 28.18 +19 09 13.1 20.8 V G96 – Mt. Lemmon Survey MPS 284395
2008 02 11.12407 04 45 28.29 +19 09 14.0 20.2 V G96 – Mt. Lemmon Survey MPS 284395
2008 02 11.12884 04 45 28.36 +19 09 14.1 20.4 V G96 – Mt. Lemmon Survey MPS 284395
2008 02 11.13363 04 45 28.44 +19 09 14.7 20.2 V G96 – Mt. Lemmon Survey MPS 284395
2009 02 26.28248 10 45 03.02 +06 11 06.1 20.5 V 703 – Catalina Sky Survey MPS 278682
2009 02 26.29287 10 45 02.52 +06 11 11.3 19.6 V 703 – Catalina Sky Survey MPS 278682
2009 02 26.30324 10 45 01.94 +06 11 12.5 19.5 V 703 – Catalina Sky Survey MPS 278682
2009 02 26.31373 10 45 01.47 +06 11 15.8 19.8 V 703 – Catalina Sky Survey MPS 278682
2009 02 27.36915 10 44 11.97 +06 16 55.6 19.9 V G96 – Mt. Lemmon Survey MPS 278682
2009 02 27.37583 10 44 11.65 +06 16 57.8 20.1 V G96 – Mt. Lemmon Survey MPS 278682
2009 02 27.38263 10 44 11.32 +06 16 59.8 20.0 V G96 – Mt. Lemmon Survey MPS 278682
2009 02 27.38944 10 44 11.00 +06 17 02.1 20.1 V G96 – Mt. Lemmon Survey MPS 278682
2009 03 16.11800 10 31 38.10 +07 44 25.8 20.7 V 691 – Steward Observatory, Kitt Peak-Spacewatch MPS 280140
2009 03 16.13456 10 31 37.40 +07 44 31.2 20.9 V 691 – Steward Observatory, Kitt Peak-Spacewatch MPS 280140
2009 03 16.15112 10 31 36.71 +07 44 35.7 20.6 V 691 – Steward Observatory, Kitt Peak-Spacewatch MPS 280140
2009 03 21.28101 10 28 16.28 +08 08 33.8 20.9 V G96 – Mt. Lemmon Survey MPS 281300
2009 03 21.28774 10 28 16.03 +08 08 35.5 20.5 V G96 – Mt. Lemmon Survey MPS 281300
2009 03 21.29447 10 28 15.74 +08 08 37.2 20.7 V G96 – Mt. Lemmon Survey MPS 281300
2009 03 21.30124 10 28 15.49 +08 08 39.4 20.6 V G96 – Mt. Lemmon Survey MPS 281300
2009 05 14.19255 10 23 06.03 +09 24 36.9 21.1 V G96 – Mt. Lemmon Survey MPS 286832
2009 05 14.20076 10 23 06.25 +09 24 35.8 22.1 V G96 – Mt. Lemmon Survey MPS 286832
2009 05 14.20902 10 23 06.39 +09 24 35.0 22.0 V G96 – Mt. Lemmon Survey MPS 286832
2009 05 14.21724 10 23 06.64 +09 24 34.1 21.8 V G96 – Mt. Lemmon Survey MPS 286832
2010 05 11.28516 15 32 03.15 -16 05 27.7 20.1 V G96 – Mt. Lemmon Survey MPS 327272
2010 05 11.29165 15 32 02.83 -16 05 26.4 20.1 V G96 – Mt. Lemmon Survey MPS 327272
2010 05 11.29815 15 32 02.50 -16 05 25.1 20.1 V G96 – Mt. Lemmon Survey MPS 327272
2010 05 11.30465 15 32 02.14 -16 05 23.8 19.8 V G96 – Mt. Lemmon Survey MPS 327272
2010 05 12.36496 15 31 09.55 -16 01 37.1 20.2 V 691 – Steward Observatory, Kitt Peak-Spacewatch MPS 327272
2010 05 12.38272 15 31 08.61 -16 01 33.6 20.0 V 691 – Steward Observatory, Kitt Peak-Spacewatch MPS 327272
2010 05 12.40044 15 31 07.72 -16 01 29.0 20.3 V 691 – Steward Observatory, Kitt Peak-Spacewatch MPS 327272
2010 05 16.35576 15 27 50.68 -15 47 27.6 20.1 V 691 – Steward Observatory, Kitt Peak-Spacewatch MPS 328516
2010 05 16.37345 15 27 49.76 -15 47 23.5 20.4 V 691 – Steward Observatory, Kitt Peak-Spacewatch MPS 328516
2010 05 16.39120 15 27 48.86 -15 47 19.6 20.0 V 691 – Steward Observatory, Kitt Peak-Spacewatch MPS 328516
2010 05 18.410574 15 26 08.429 -15 40 13.34 20.12 r F51 – Pan-STARRS 1, Haleakala MPS 338834
2010 05 18.421353 15 26 07.873 -15 40 11.07 20.07 r F51 – Pan-STARRS 1, Haleakala MPS 338834
